Stations météo

réclame
Mon MeteoGroup
Cap-de-la Heve, France (7028): Température de l'air & dewpoint: 18.01.2018 06:00:00 - 24.01.2018 06:00:00 (CET)Cap-de-la Heve, France (7028): Température de l'air 5cm: 18.01.2018 06:00:00 - 24.01.2018 06:00:00 (CET)Cap-de-la Heve, France (7028): Vitesse du vent & gusts: 18.01.2018 06:00:00 - 24.01.2018 06:00:00 (CET)Cap-de-la Heve, France (7028): Direction du vent: 18.01.2018 06:00:00 - 24.01.2018 06:00:00 (CET)Cap-de-la Heve, France (7028): reduced air pressure: 18.01.2018 06:00:00 - 24.01.2018 06:00:00 (CET)Cap-de-la Heve, France (7028): visibility: 18.01.2018 06:00:00 - 24.01.2018 06:00:00 (CET)Cap-de-la Heve, France (7028): Quantités de précipitations: 18.01.2018 06:00:00 - 24.01.2018 06:00:00 (CET)
Date & Time tt [°C] td [°C] tt 5cm [°C] ff [km/h] ff [knt] fx [km/h] fx [knt] dd ppp [hPa] vv [km] rr [mm]
24.01.2018 06:00:00 11,5 10,2 11,2 29 16 53 29 SSW 1016,6 - 0,0
24.01.2018 05:00:00 11,5 10,2 10,8 32 18 53 29 SSW 1016,8 - 0,0
24.01.2018 04:00:00 11,4 10,3 10,8 37 20 47 25 S 1017,5 20 0,0
24.01.2018 03:00:00 11,0 9,6 10,8 27 14 45 25 SSW 1018,3 - 0,0
24.01.2018 02:00:00 11,5 10,1 10,8 16 9 50 27 SW 1018,8 - 0,0
24.01.2018 01:00:00 11,2 10,3 10,8 21 12 48 26 SW 1019,4 20 0,0
24.01.2018 00:00:00 11,2 10,4 10,8 23 12 43 23 SW 1019,9 - 0,0
23.01.2018 23:00:00 11,2 10,4 10,7 21 11 46 25 SW 1020,0 - 0,0
23.01.2018 22:00:00 10,9 10,3 10,4 21 11 45 25 SW 1019,8 20 0,0
23.01.2018 21:00:00 11,0 10,5 10,8 16 9 46 25 SW 1020,0 - 0,0
23.01.2018 20:00:00 11,0 10,4 10,9 18 10 45 24 SW 1020,0 - 0,0
23.01.2018 19:00:00 11,0 10,4 10,9 17 9 47 25 SSW 1019,9 20 0,0
23.01.2018 18:00:00 11,2 10,1 10,7 19 10 46 25 SW 1019,5 - 0,0
23.01.2018 17:00:00 11,3 9,9 11,0 19 10 49 26 SW 1019,5 - 0,0
23.01.2018 16:00:00 11,3 9,7 10,8 16 9 45 24 SSW 1019,3 - 0,0
23.01.2018 15:00:00 10,5 9,3 10,6 22 12 48 26 SW 1019,4 - 0,0
23.01.2018 14:00:00 10,5 9,1 10,4 21 11 46 25 SW 1019,9 - 0,0
23.01.2018 13:00:00 10,1 8,7 9,6 24 13 48 26 SW 1020,6 20 0,0
23.01.2018 12:00:00 9,3 8,1 9,2 30 16 47 26 SSW 1021,3 - 0,0
23.01.2018 11:00:00 9,0 7,9 8,0 29 16 47 26 SSW 1021,1 - 0,0
23.01.2018 10:00:00 8,0 7,2 7,4 29 16 46 25 SSW 1021,3 - 0,2
23.01.2018 09:00:00 7,7 6,3 7,3 29 16 44 24 SSW 1021,3 - 0,0
23.01.2018 08:00:00 7,8 5,8 6,5 22 12 40 21 S 1021,3 - 0,0
23.01.2018 07:00:00 7,6 5,7 6,5 29 15 39 21 S 1021,6 15 0,0
23.01.2018 06:00:00 7,7 6,0 6,8 24 13 35 19 S 1021,9 - 0,0
23.01.2018 05:00:00 7,7 6,6 6,9 23 12 36 20 SSW 1022,2 - 0,0
23.01.2018 04:00:00 8,2 6,8 7,6 12 6 30 16 SW 1022,5 - 0,0
23.01.2018 03:00:00 8,2 7,0 8,0 9 5 41 22 S 1022,6 - 0,0
23.01.2018 02:00:00 8,4 6,9 8,0 18 10 40 21 SW 1022,9 - 0,0
23.01.2018 01:00:00 8,5 6,8 8,1 17 9 39 21 SW 1022,5 - 0,0
23.01.2018 00:00:00 8,5 7,0 7,9 19 10 36 20 SW 1022,4 - 0,0
22.01.2018 23:00:00 8,2 6,7 8,0 15 8 31 17 SW 1022,4 - 0,0
22.01.2018 22:00:00 8,5 6,3 7,8 10 6 23 13 WSW 1022,2 25 0,0
22.01.2018 21:00:00 8,7 5,4 7,9 10 5 29 16 WNW 1021,9 - 0,0
22.01.2018 20:00:00 9,2 5,2 8,5 16 9 45 24 NNW 1021,4 - 0,0
22.01.2018 19:00:00 9,3 4,5 8,2 23 12 50 27 NW 1020,6 15 0,0
22.01.2018 18:00:00 9,2 5,4 8,4 29 16 52 28 NW 1019,6 - 0,0
22.01.2018 17:00:00 8,9 7,2 8,6 14 8 37 20 WNW 1018,2 - 0,0
22.01.2018 16:00:00 9,5 8,1 10,5 21 12 41 22 NW 1017,2 10 0,0
22.01.2018 15:00:00 9,4 8,5 10,8 19 11 34 19 NW 1016,3 - 0,0
22.01.2018 14:00:00 9,1 8,8 9,7 16 9 30 16 NNW 1015,1 - 0,0
22.01.2018 13:00:00 8,9 8,8 9,1 14 8 32 18 N 1014,0 4,0 0,0
22.01.2018 12:00:00 8,8 8,7 9,2 21 11 40 21 N 1011,8 - 0,4
22.01.2018 11:00:00 8,9 8,8 9,2 23 12 53 28 NNE 1009,7 - 1,0
22.01.2018 10:00:00 10,1 9,9 10,3 44 24 56 30 W 1008,0 4,0 1,4
22.01.2018 09:00:00 10,4 10,2 10,4 23 12 45 24 W 1008,2 - 8,9
22.01.2018 08:00:00 10,7 10,5 10,5 13 7 33 18 SW 1008,1 - 4,2
22.01.2018 07:00:00 10,4 10,2 9,9 12 7 34 18 SW 1009,3 0,1 2,4
22.01.2018 06:00:00 10,0 9,8 9,9 22 12 39 21 W 1010,0 - 2,7
22.01.2018 05:00:00 9,9 9,7 9,7 29 16 41 22 W 1010,8 - 3,8
22.01.2018 04:00:00 9,7 9,6 9,7 20 11 45 24 WSW 1010,9 0,1 0,8
22.01.2018 03:00:00 9,8 9,7 9,7 31 17 50 27 W 1011,2 - 0,2
22.01.2018 02:00:00 9,8 9,7 9,7 31 17 50 27 W 1011,6 - 0,2
22.01.2018 01:00:00 9,7 9,6 9,7 36 19 60 32 W 1011,7 0,1 0,0
22.01.2018 00:00:00 9,8 9,7 9,6 42 23 58 32 W 1011,1 - 0,0
21.01.2018 23:00:00 9,7 9,4 9,6 46 25 68 37 W 1011,3 - 0,2
21.01.2018 22:00:00 9,6 9,3 9,6 41 22 67 36 WSW 1010,8 0,2 1,0
21.01.2018 21:00:00 9,6 9,3 9,4 37 20 72 39 WSW 1010,8 - 0,6
21.01.2018 20:00:00 9,5 9,2 9,4 36 19 59 32 WSW 1011,3 - 0,2
21.01.2018 19:00:00 9,4 9,1 9,3 34 19 61 33 WSW 1011,5 - 0,0
21.01.2018 18:00:00 9,5 9,2 9,4 36 20 58 31 WSW 1011,7 - 0,6
21.01.2018 17:00:00 9,6 9,3 9,5 35 19 59 32 W 1012,3 - 0,0
21.01.2018 16:00:00 9,5 9,2 9,5 41 22 59 32 W 1012,5 0,1 0,2
21.01.2018 15:00:00 9,4 9,1 8,7 42 23 58 31 W 1012,6 - 0,8
21.01.2018 14:00:00 8,2 7,9 6,7 14 7 25 13 SSE 1013,6 - 1,2
21.01.2018 13:00:00 6,3 6,0 6,2 21 11 34 18 SE 1014,3 1,5 0,6
21.01.2018 12:00:00 5,7 5,3 5,7 17 9 27 15 ESE 1015,4 - 0,6
21.01.2018 11:00:00 5,4 4,8 5,3 15 8 25 14 ESE 1016,0 - 0,6
21.01.2018 10:00:00 5,6 4,1 4,8 11 6 19 11 SE 1016,3 8 0,0
21.01.2018 09:00:00 5,5 3,7 4,4 8 4 19 10 SE 1016,5 - 0,0
21.01.2018 08:00:00 5,2 3,4 4,4 7 4 11 6 SE 1016,0 - 0,0
21.01.2018 07:00:00 5,3 3,1 4,4 6 3 9 5 E 1015,8 30 0,2
21.01.2018 06:00:00 5,5 2,8 4,8 0 0 9 5 N 1015,8 - 0,0
21.01.2018 05:00:00 5,6 2,9 4,9 4 2 13 7 NNE 1015,1 - 0,0
21.01.2018 04:00:00 5,8 3,0 5,0 8 4 22 12 N 1014,8 - 0,0
21.01.2018 03:00:00 5,9 3,1 5,2 12 6 31 17 N 1014,2 - 0,0
21.01.2018 02:00:00 6,3 4,3 5,8 16 9 32 18 N 1012,8 - 0,0
21.01.2018 01:00:00 6,6 4,8 6,1 17 9 39 21 N 1011,5 20 0,0
21.01.2018 00:00:00 7,4 5,9 6,9 22 12 50 27 N 1009,5 - 0,0
20.01.2018 23:00:00 9,0 7,3 8,2 30 16 53 29 NW 1007,4 - 0,0
20.01.2018 22:00:00 8,9 7,5 8,2 29 16 57 31 NW 1006,1 15 0,0
20.01.2018 21:00:00 9,0 8,1 8,5 26 14 54 29 NW 1004,7 - 0,0
20.01.2018 20:00:00 8,9 8,3 8,2 23 13 63 34 WNW 1003,5 - 0,2
20.01.2018 19:00:00 8,8 8,3 8,5 19 10 61 33 NW 1001,7 8 0,6
20.01.2018 18:00:00 9,4 9,1 9,2 40 22 69 37 W 1000,7 - 0,0
20.01.2018 17:00:00 9,4 8,9 9,2 46 25 64 35 W 1000,0 - 0,4
20.01.2018 16:00:00 9,4 8,6 9,1 20 11 59 32 WNW 999,7 - 0,2
20.01.2018 15:00:00 9,2 8,0 9,0 20 11 64 35 WNW 999,5 - 0,0
20.01.2018 14:00:00 9,2 8,7 9,9 20 11 54 29 WNW 998,8 - 0,0
20.01.2018 13:00:00 9,4 9,1 9,2 18 10 42 23 WNW 998,9 10 0,2
20.01.2018 12:00:00 8,9 8,4 7,4 21 11 43 23 WNW 998,6 - 0,0
20.01.2018 11:00:00 7,4 7,0 5,8 14 8 31 17 S 998,4 - 0,8
20.01.2018 10:00:00 5,8 5,4 5,2 21 11 47 25 SE 999,4 4,0 0,8
20.01.2018 09:00:00 5,4 5,0 5,2 26 14 50 27 SE 1000,3 - 0,9
20.01.2018 08:00:00 5,6 5,0 5,4 24 13 39 21 SE 1002,6 - 1,2
20.01.2018 07:00:00 5,6 5,2 5,5 27 15 48 26 S 1005,0 18 1,2
20.01.2018 06:00:00 5,5 5,1 5,3 21 11 39 21 SSW 1006,8 - 0,8
20.01.2018 05:00:00 5,4 4,8 5,3 13 7 48 26 SW 1008,6 - 1,2
20.01.2018 04:00:00 5,5 4,8 5,3 16 9 46 25 ENE 1009,7 20 0,6
20.01.2018 03:00:00 5,7 4,7 5,2 16 9 61 33 SSW 1011,4 - 0,4
20.01.2018 02:00:00 5,7 4,0 5,1 16 9 55 30 SE 1012,2 - 0,0
20.01.2018 01:00:00 6,0 4,2 4,9 16 9 57 31 SW 1012,9 30 0,0
20.01.2018 00:00:00 5,8 3,6 4,7 24 13 60 32 SW 1013,3 - 0,0
19.01.2018 23:00:00 5,9 3,6 4,6 25 14 58 31 SW 1013,5 - 0,0
19.01.2018 22:00:00 5,8 3,6 4,6 23 13 66 35 WSW 1013,6 30 0,0
19.01.2018 21:00:00 5,8 3,6 4,5 28 15 59 32 WSW 1013,2 - 0,0
19.01.2018 20:00:00 5,0 3,8 3,7 27 15 59 32 W 1013,7 - 2,2
19.01.2018 19:00:00 5,7 2,7 4,6 29 16 68 37 W 1014,1 20 0,4
19.01.2018 18:00:00 6,7 2,8 5,1 39 21 76 41 W 1013,0 - 0,0
19.01.2018 17:00:00 7,1 2,4 5,3 34 19 54 29 W 1013,1 - 0,0
19.01.2018 16:00:00 8,5 2,5 7,5 28 15 51 28 W 1012,7 - 0,0
19.01.2018 15:00:00 7,5 3,2 7,6 34 18 52 28 W 1013,0 - 0,0
19.01.2018 14:00:00 7,4 2,5 7,4 13 7 40 21 WNW 1013,1 - 0,0
19.01.2018 13:00:00 7,7 2,6 7,0 13 7 41 22 WNW 1013,4 20 0,0
19.01.2018 12:00:00 6,2 3,7 4,7 6 3 44 24 WNW 1013,6 - 0,2
19.01.2018 11:00:00 5,9 3,1 4,0 11 6 54 29 NW 1013,0 - 0,0
19.01.2018 10:00:00 5,1 3,6 3,4 12 6 37 20 WNW 1012,6 20 0,2
19.01.2018 09:00:00 4,3 2,6 3,0 27 14 68 37 NW 1012,2 - 1,0
19.01.2018 08:00:00 4,5 3,2 3,3 5 3 43 23 WNW 1011,8 - 1,0
19.01.2018 07:00:00 5,0 3,2 3,7 19 11 59 32 NW 1011,7 20 1,8
19.01.2018 06:00:00 6,1 3,9 4,7 27 14 51 28 WSW 1010,9 - 0,0
19.01.2018 05:00:00 5,8 3,5 4,6 22 12 56 31 WSW 1010,9 - 0,0
19.01.2018 04:00:00 6,5 3,3 4,5 28 15 63 34 W 1010,7 - 0,0
19.01.2018 03:00:00 6,5 4,2 3,2 37 20 59 32 W 1010,8 - 1,8
19.01.2018 02:00:00 7,5 2,0 6,2 24 13 51 28 NW 1010,6 - 0,0
19.01.2018 01:00:00 7,5 1,3 6,2 28 15 59 32 NW 1010,6 25 0,0
19.01.2018 00:00:00 7,5 2,4 6,1 24 13 58 31 NW 1010,0 - 0,0
18.01.2018 23:00:00 7,6 3,3 6,0 29 16 64 35 NW 1009,3 - 0,0
18.01.2018 22:00:00 7,7 3,4 5,9 33 18 62 34 NW 1008,8 25 0,0
18.01.2018 21:00:00 7,6 4,5 4,9 24 13 54 29 NW 1008,1 - 0,0
18.01.2018 20:00:00 6,2 4,2 5,1 25 13 76 41 NW 1007,8 - 0,6
18.01.2018 19:00:00 7,9 5,7 6,9 42 23 63 34 W 1006,9 20 0,0
18.01.2018 18:00:00 8,3 5,6 7,2 45 24 63 34 W 1006,5 - 0,0
18.01.2018 17:00:00 8,3 5,6 7,7 31 17 52 28 W 1006,4 - 0,0
18.01.2018 16:00:00 9,3 5,8 8,9 34 18 51 28 W 1006,3 15 0,0
18.01.2018 15:00:00 9,9 5,9 10,4 30 16 47 26 W 1006,2 - 0,0
18.01.2018 14:00:00 9,1 6,2 8,4 22 12 37 20 W 1006,6 - 0,0
18.01.2018 13:00:00 9,0 5,4 8,9 16 9 43 23 WNW 1006,7 10 0,0
18.01.2018 12:00:00 9,0 5,7 8,7 17 9 42 23 WNW 1007,0 - 0,0
18.01.2018 11:00:00 9,0 6,3 8,2 14 8 47 25 WNW 1006,7 - 0,0
18.01.2018 10:00:00 9,2 6,5 8,1 25 13 66 35 WNW 1005,9 6 0,0
18.01.2018 09:00:00 9,4 8,6 9,0 24 13 79 43 WNW 1005,0 - 0,0
18.01.2018 08:00:00 9,6 8,7 8,7 55 30 98 53 W 1003,5 - 0,0
18.01.2018 07:00:00 9,7 8,9 9,0 56 30 99 53 WSW 1002,0 25 0,2
18.01.2018 06:00:00 9,4 8,8 8,8 46 25 93 50 WSW 1001,7 - 0,0

tt = Température de l'air
td = dewpoint
tt 5cm = Température de l'air 5cm
ff = Vitesse du vent
fx = gusts
dd = Direction du vent
ppp = reduced air pressure
vv = visibility
rr = Quantités de précipitations

stations d'obs. à proximité